Overview Statistics Trail Chart Weather Telemetry Raw packets
 

This is the latest recevied weather packets stored in our database for station/object N7AWM. If no packets are shown the sender has not sent any weather packets the latest 10 day(s).

<< 39 40 41 42 43 >>
Time Temp. Humidity Pressure Rain* Wind** Luminosity Snow
1787776603 30° C 32% 1007.5 hPa 0 mm - - -
1787775763 30° C 29% 1007.6 hPa 0 mm - - -
1787774923 29.44° C 28% 1007.7 hPa 0 mm - - -
1787774260 28.89° C 36% 1008 hPa 0 mm - - -
1787774083 28.89° C 36% 1008 hPa 0 mm - - -
1787773243 28.33° C 31% 1008.2 hPa 0 mm - - -
1787772404 28.33° C 31% 1008.3 hPa 0 mm - - -
1787771564 27.78° C 31% 1008.6 hPa 0 mm - - -
1787770724 28.33° C 33% 1008.7 hPa 0 mm - - -
1787769884 27.78° C 30% 1008.9 hPa 0 mm - - -
1787769044 27.22° C 31% 1009.1 hPa 0 mm - - -
1787768204 26.67° C 31% 1009.2 hPa 0 mm - - -
1787767364 26.11° C 35% 1009.2 hPa 0 mm - - -
1787766623 25.56° C 36% 1009.3 hPa 0 mm - - -
1787766524 25.56° C 36% 1009.3 hPa 0 mm - - -
1787765684 25.56° C 42% 1009.4 hPa 0 mm - - -
1787764844 24.44° C 45% 1009.5 hPa 0 mm - - -
1787764004 23.33° C 43% 1009.5 hPa 0 mm - - -
1787763164 23.33° C 46% 1009.5 hPa 0 mm - - -
1787762324 22.78° C 50% 1009.6 hPa 0 mm - - -
1787761487 22.78° C 49% 1009.6 hPa 0 mm - - -
1787760644 22.22° C 49% 1009.6 hPa 0 mm - - -
1787759805 21.67° C 46% 1009.7 hPa 0 mm - - -
1787758965 22.78° C 44% 1009.7 hPa 0 mm - - -
1787758125 22.22° C 45% 1009.7 hPa 0 mm - - -

* Rain latest hour (hover to see other rain measurements)
** Current wind speed in m/s (hover to see current wind gust speed)